When you browse on this site, cookies collect data to enhance your experience and personalize the content and advertising you see.
Visit our Privacy Policy to learn more. By continuing to use the site, you agree to this use of cookies and data.
  • In Spain
  • List of Countries
  • For 7 days
  • Water Temperature
  • Weather Map
  • Weather Widgets
  • user-avatar
    Login

    Hourly Weather Bulawayo

    Today, 20 February, Thursday

    Time Temperature Precipitation Wind Pressure Humidity
    00:00 +20°C° 0 mm 3 mps 650 mmHg 82%
    01:00 +19°C° 0 mm 3 mps 650 mmHg 84%
    02:00 +19°C° 0 mm 4 mps 650 mmHg 83%
    03:00 +19°C° 0 mm 3 mps 649 mmHg 84%
    04:00 +18°C° 0 mm 3 mps 649 mmHg 86%
    05:00 +18°C° 0 mm 3 mps 649 mmHg 88%
    06:00 +19°C° 0 mm 3 mps 649 mmHg 83%
    07:00 +20°C° 0 mm 4 mps 650 mmHg 78%
    08:00 +22°C° 0 mm 4 mps 651 mmHg 73%
    09:00 +25°C° 0 mm 3 mps 651 mmHg 65%
    10:00 +27°C° 0 mm 2 mps 651 mmHg 57%
    11:00 +29°C° 0 mm 2 mps 651 mmHg 49%
    12:00 +30°C° 0 mm 2 mps 651 mmHg 44%
    13:00 +31°C° 0 mm 1 mps 651 mmHg 39%
    14:00 +32°C° 0 mm 1 mps 650 mmHg 34%
    15:00 +31°C° 0 mm 1 mps 650 mmHg 36%
    16:00 +30°C° 0 mm 2 mps 649 mmHg 38%
    17:00 +29°C° 0 mm 2 mps 648 mmHg 40%
    18:00 +28°C° 0 mm 2 mps 648 mmHg 42%
    19:00 +26°C° 0 mm 2 mps 648 mmHg 44%
    20:00 +24°C° 0 mm 2 mps 648 mmHg 45%
    21:00 +23°C° 0 mm 2 mps 648 mmHg 51%
    22:00 +21°C° 0 mm 2 mps 648 mmHg 57%
    23:00 +20°C° 0 mm 2 mps 648 mmHg 63%

    Tomorrow, 21 February, Friday

    Time Temperature Precipitation Wind Pressure Humidity
    00:00 +20°C° 0 mm 2 mps 648 mmHg 66%
    01:00 +20°C° 0 mm 2 mps 648 mmHg 69%
    02:00 +20°C° 0 mm 1 mps 648 mmHg 72%
    03:00 +20°C° 0 mm 1 mps 648 mmHg 73%
    04:00 +20°C° 0 mm 1 mps 647 mmHg 73%
    05:00 +20°C° 0 mm 1 mps 647 mmHg 73%
    06:00 +21°C° 0 mm 1 mps 648 mmHg 69%
    07:00 +23°C° 0 mm 1 mps 649 mmHg 64%
    08:00 +24°C° 0 mm 1 mps 650 mmHg 59%
    15:00 +30°C° 0 mm 3 mps 649 mmHg 46%
    16:00 +30°C° 0 mm 3 mps 648 mmHg 47%
    17:00 +29°C° 0 mm 3 mps 648 mmHg 49%
    18:00 +27°C° 0 mm 3 mps 648 mmHg 56%
    19:00 +26°C° 0 mm 3 mps 648 mmHg 62%
    20:00 +24°C° 0 mm 3 mps 648 mmHg 69%
    21:00 +22°C° 0 mm 3 mps 648 mmHg 71%
    22:00 +22°C° 0 mm 3 mps 648 mmHg 73%
    23:00 +21°C° 0 mm 3 mps 648 mmHg 75%

    Day after tomorrow, 22 February, Saturday

    Time Temperature Precipitation Wind Pressure Humidity
    00:00 +21°C° 0 mm 3 mps 648 mmHg 77%
    01:00 +20°C° 0 mm 3 mps 648 mmHg 79%
    02:00 +20°C° 0 mm 2 mps 647 mmHg 80%
    03:00 +20°C° 0 mm 2 mps 647 mmHg 83%
    04:00 +19°C° 0 mm 2 mps 647 mmHg 85%
    05:00 +19°C° 0 mm 2 mps 647 mmHg 88%
    06:00 +20°C° 0 mm 3 mps 648 mmHg 82%
    07:00 +21°C° 0 mm 3 mps 648 mmHg 76%
    08:00 +22°C° 0 mm 3 mps 649 mmHg 70%
    09:00 +26°C° 0 mm 3 mps 649 mmHg 61%
    10:00 +28°C° 0 mm 3 mps 650 mmHg 51%
    11:00 +30°C° 0 mm 2 mps 650 mmHg 41%
    12:00 +31°C° 0 mm 2 mps 650 mmHg 38%
    13:00 +32°C° 0 mm 2 mps 649 mmHg 34%
    14:00 +34°C° 0 mm 2 mps 649 mmHg 30%
    15:00 +32°C° 0 mm 2 mps 648 mmHg 31%
    16:00 +32°C° 0 mm 2 mps 647 mmHg 31%
    17:00 +31°C° 0 mm 2 mps 647 mmHg 32%
    18:00 +29°C° 0 mm 2 mps 647 mmHg 37%
    19:00 +27°C° 0 mm 2 mps 647 mmHg 41%
    20:00 +25°C° 0 mm 1 mps 646 mmHg 46%
    21:00 +24°C° 0 mm 1 mps 647 mmHg 50%
    22:00 +24°C° 0 mm 2 mps 647 mmHg 55%
    23:00 +23°C° 0 mm 2 mps 647 mmHg 59%

    23 February, Sunday

    Time Temperature Precipitation Wind Pressure Humidity
    00:00 +21°C° 0 mm 2 mps 647 mmHg 62%
    01:00 +21°C° 0 mm 2 mps 646 mmHg 65%
    02:00 +21°C° 0 mm 2 mps 646 mmHg 68%
    03:00 +20°C° 0 mm 2 mps 646 mmHg 70%
    04:00 +21°C° 0 mm 1 mps 646 mmHg 73%
    05:00 +21°C° 0 mm 1 mps 646 mmHg 75%
    06:00 +22°C° 0 mm 1 mps 647 mmHg 71%
    07:00 +24°C° 0 mm 1 mps 648 mmHg 67%
    08:00 +25°C° 0 mm 1 mps 648 mmHg 63%
    09:00 +27°C° 0.1 mm 1 mps 649 mmHg 56%
    10:00 +29°C° 0.1 mm 1 mps 649 mmHg 49%
    11:00 +32°C° 0.1 mm 2 mps 649 mmHg 42%
    12:00 +31°C° 0 mm 2 mps 649 mmHg 42%
    13:00 +31°C° 0 mm 2 mps 648 mmHg 42%
    14:00 +31°C° 0 mm 3 mps 647 mmHg 42%
    15:00 +30°C° 0.1 mm 3 mps 647 mmHg 46%
    16:00 +29°C° 0.1 mm 4 mps 646 mmHg 51%
    17:00 +28°C° 0.1 mm 4 mps 646 mmHg 55%
    18:00 +26°C° 0.7 mm 5 mps 646 mmHg 64%
    19:00 +24°C° 0.7 mm 6 mps 647 mmHg 73%
    20:00 +22°C° 0.7 mm 6 mps 647 mmHg 83%
    21:00 +21°C° 0.3 mm 6 mps 647 mmHg 83%
    22:00 +21°C° 0.3 mm 7 mps 648 mmHg 84%
    23:00 +21°C° 0.3 mm 7 mps 648 mmHg 85%

    24 February, Monday

    Time Temperature Precipitation Wind Pressure Humidity
    00:00 +20°C° 1.6 mm 7 mps 648 mmHg 87%
    01:00 +20°C° 1.6 mm 6 mps 648 mmHg 89%
    02:00 +19°C° 1.6 mm 6 mps 648 mmHg 91%
    03:00 +19°C° 2.1 mm 6 mps 648 mmHg 91%
    04:00 +19°C° 2.1 mm 6 mps 648 mmHg 91%
    05:00 +19°C° 2.1 mm 6 mps 648 mmHg 92%
    06:00 +19°C° 0.1 mm 6 mps 648 mmHg 91%
    07:00 +19°C° 0.1 mm 6 mps 649 mmHg 91%
    08:00 +19°C° 0.1 mm 6 mps 649 mmHg 90%
    09:00 +17°C° 0.8 mm 6 mps 649 mmHg 90%
    10:00 +17°C° 0.8 mm 6 mps 649 mmHg 90%
    11:00 +17°C° 0.8 mm 6 mps 649 mmHg 90%
    12:00 +17°C° 0.7 mm 6 mps 649 mmHg 90%
    13:00 +17°C° 0.7 mm 6 mps 649 mmHg 90%
    14:00 +17°C° 0.7 mm 6 mps 648 mmHg 90%
    15:00 +17°C° 0.1 mm 6 mps 648 mmHg 90%
    16:00 +17°C° 0.1 mm 6 mps 648 mmHg 89%
    17:00 +17°C° 0.1 mm 6 mps 647 mmHg 89%
    18:00 +16°C° 0 mm 6 mps 648 mmHg 89%
    19:00 +16°C° 0 mm 6 mps 648 mmHg 89%
    20:00 +16°C° 0 mm 6 mps 648 mmHg 90%
    21:00 +15°C° 0.1 mm 6 mps 649 mmHg 90%
    22:00 +15°C° 0.1 mm 6 mps 649 mmHg 91%
    23:00 +15°C° 0.1 mm 6 mps 649 mmHg 91%

    25 February, Tuesday

    Time Temperature Precipitation Wind Pressure Humidity
    00:00 +15°C° 0.4 mm 5 mps 649 mmHg 92%
    01:00 +15°C° 0.4 mm 5 mps 648 mmHg 92%
    02:00 +15°C° 0.4 mm 5 mps 648 mmHg 93%
    03:00 +15°C° 0.3 mm 4 mps 648 mmHg 93%
    04:00 +15°C° 0.3 mm 4 mps 648 mmHg 93%
    05:00 +15°C° 0.3 mm 4 mps 648 mmHg 93%
    06:00 +15°C° 0 mm 5 mps 649 mmHg 93%
    07:00 +15°C° 0 mm 5 mps 649 mmHg 93%
    08:00 +15°C° 0 mm 5 mps 649 mmHg 92%
    09:00 +16°C° 0 mm 5 mps 649 mmHg 89%
    10:00 +17°C° 0 mm 5 mps 649 mmHg 86%
    11:00 +19°C° 0 mm 5 mps 650 mmHg 83%
    12:00 +19°C° 0 mm 5 mps 649 mmHg 81%
    13:00 +20°C° 0 mm 5 mps 649 mmHg 78%
    14:00 +20°C° 0 mm 5 mps 649 mmHg 76%
    15:00 +20°C° 0 mm 4 mps 648 mmHg 76%
    16:00 +20°C° 0 mm 4 mps 648 mmHg 77%
    17:00 +20°C° 0 mm 4 mps 647 mmHg 77%
    18:00 +19°C° 0 mm 4 mps 647 mmHg 80%
    19:00 +19°C° 0 mm 4 mps 648 mmHg 82%
    20:00 +18°C° 0 mm 4 mps 648 mmHg 84%
    21:00 +18°C° 0 mm 4 mps 648 mmHg 85%
    22:00 +18°C° 0 mm 4 mps 648 mmHg 86%
    23:00 +16°C° 0 mm 5 mps 649 mmHg 88%
    Show more